Le Mars, IA

2:07 AM CDT on May 26, 2018 (GMT -0500)
Le Mars Municipal

Weather History for KLRJ - December, 2012

Change the Weather History Date:

Thursday, December 20, 2012

  Actual Average Record
Temperature  
Mean Temperature 18 °F -  
Max Temperature 24 °F 28 °F 54 °F (1979)
Min Temperature 12 °F 9 °F -25 °F (1983)
Degree Days  
Heating Degree Days 47    
Moisture  
Dew Point 13 °F    
Average Humidity 77    
Maximum Humidity 86    
Minimum Humidity 68    
Precipitation  
Precipitation 0.01 in - - ()
Sea Level Pressure  
Sea Level Pressure 30.03 in    
Wind  
Wind Speed 15 mph (NNW)    
Max Wind Speed 25 mph    
Max Gust Speed 33 mph    
Visibility 8 miles    
Events Snow    
Averages and records for this station are not official NWS values.
T = Trace of Precipitation, MM = Missing Value Source: NWS Daily Summary

Daily Weather History Graph

Daily Weather History Graph

Search for Another Location

Airport or City:

Astronomy

Dec. 20, 2012 Rise Set
Actual Time 7:51 AM CST 4:53 PM CST
Civil Twilight 7:19 AM CST 5:25 PM CST
Nautical Twilight 6:43 AM CST 6:01 PM CST
Astronomical Twilight 6:09 AM CST 6:36 PM CST
Moon 12:18 PM CST (12/20) 12:32 AM CST (12/20)
Length of Visible Light 10h 06m
Length of Day
9h 01m
First Quarter, 55% of the Moon is Illuminated
Dec 20
First Quarter
Dec 28
Full
Jan 4
Last Quarter
Jan 11
New
Jan 18
First Quarter

Hourly Weather History & Observations

Time (CST) Temp. Windchill Dew Point Humidity Pressure Visibility Wind Dir Wind Speed Gust Speed Precip Events Conditions
12:15 AM 24.8 °F 11.5 °F 19.4 °F 80% 29.93 in - North 17.3 mph 21.9 mph N/A   Overcast
12:35 AM 23.0 °F 10.1 °F 19.4 °F 86% 29.94 in - North 15.0 mph 21.9 mph 0.01 in   Overcast
12:55 AM 23.0 °F 11.1 °F 17.6 °F 80% 29.93 in - North 12.7 mph 20.7 mph 0.01 in   Overcast
1:15 AM 23.0 °F 11.1 °F 17.6 °F 80% 29.93 in - North 12.7 mph 19.6 mph N/A   Overcast
1:35 AM 23.0 °F 11.1 °F 17.6 °F 80% 29.92 in - North 12.7 mph 18.4 mph N/A   Overcast
1:55 AM 23.0 °F 10.1 °F 17.6 °F 80% 29.93 in - North 15.0 mph 21.9 mph N/A   Overcast
2:15 AM 21.2 °F 7.8 °F 17.6 °F 86% 29.92 in - North 15.0 mph 20.7 mph N/A   Unknown
2:35 AM 21.2 °F 7.8 °F 17.6 °F 86% 29.92 in - North 15.0 mph 23.0 mph N/A   Overcast
2:55 AM 21.2 °F 7.8 °F 17.6 °F 86% 29.92 in - North 15.0 mph 20.7 mph N/A   Overcast
3:15 AM 21.2 °F 8.3 °F 15.8 °F 80% 29.92 in 7.0 mi North 13.8 mph 24.2 mph N/A   Overcast
3:35 AM 21.2 °F 6.4 °F 15.8 °F 80% 29.91 in 10.0 mi North 18.4 mph 23.0 mph N/A   Mostly Cloudy
3:55 AM 21.2 °F 6.8 °F 15.8 °F 80% 29.92 in 7.0 mi North 17.3 mph 23.0 mph N/A   Overcast
4:15 AM 21.2 °F 7.8 °F 15.8 °F 80% 29.93 in 10.0 mi North 15.0 mph 25.3 mph N/A   Overcast
4:35 AM 21.2 °F 7.3 °F 15.8 °F 80% 29.92 in 7.0 mi North 16.1 mph 19.6 mph N/A   Overcast
4:55 AM 21.2 °F 6.8 °F 15.8 °F 80% 29.93 in 7.0 mi North 17.3 mph 21.9 mph N/A   Overcast
5:15 AM 21.2 °F 7.3 °F 15.8 °F 80% 29.92 in 5.0 mi North 16.1 mph 25.3 mph N/A   Haze
5:35 AM 21.2 °F 6.8 °F 17.6 °F 86% 29.93 in 5.0 mi North 17.3 mph 21.9 mph N/A   Haze
5:55 AM 21.2 °F 7.8 °F 17.6 °F 86% 29.94 in 4.0 mi North 15.0 mph 24.2 mph N/A   Haze
6:15 AM 21.2 °F 7.8 °F 17.6 °F 86% 29.95 in 4.0 mi North 15.0 mph 23.0 mph N/A   Haze
6:35 AM 21.2 °F 6.8 °F 17.6 °F 86% 29.95 in 5.0 mi North 17.3 mph 24.2 mph N/A   Haze
6:55 AM 23.0 °F 7.2 °F 17.6 °F 80% 29.96 in 4.0 mi North 23.0 mph 26.5 mph N/A Snow Light Snow
7:15 AM 23.0 °F 8.3 °F 17.6 °F 80% 29.97 in 4.0 mi North 19.6 mph 32.2 mph N/A   Haze
7:35 AM 23.0 °F 8.7 °F 17.6 °F 80% 29.97 in 7.0 mi North 18.4 mph 24.2 mph N/A   Overcast
7:55 AM 23.0 °F 8.3 °F 17.6 °F 80% 29.98 in 5.0 mi NNW 19.6 mph 25.3 mph N/A   Haze
8:15 AM 21.2 °F 5.6 °F 15.8 °F 80% 29.98 in 4.0 mi North 20.7 mph 26.5 mph N/A   Haze
8:35 AM 21.2 °F 6.4 °F 15.8 °F 80% 29.98 in 4.0 mi North 18.4 mph 28.8 mph N/A   Haze
8:55 AM 21.2 °F 4.5 °F 15.8 °F 80% 29.98 in 4.0 mi NNW 24.2 mph 31.1 mph N/A   Haze
9:15 AM 21.2 °F 4.9 °F 15.8 °F 80% 29.99 in 4.0 mi NNW 23.0 mph 26.5 mph N/A   Haze
9:35 AM 21.2 °F 4.2 °F 15.8 °F 80% 30.00 in 3.0 mi NNW 25.3 mph 33.4 mph N/A   Haze
9:55 AM 21.2 °F 5.6 °F 15.8 °F 80% 30.01 in 4.0 mi NNW 20.7 mph 32.2 mph N/A   Haze
10:15 AM 21.2 °F 5.6 °F 14.0 °F 74% 30.02 in 3.0 mi NNW 20.7 mph 33.4 mph N/A   Haze
10:35 AM 21.2 °F 5.6 °F 15.8 °F 80% 30.03 in 4.0 mi NNW 20.7 mph 26.5 mph N/A   Haze
10:55 AM 21.2 °F 6.8 °F 15.8 °F 80% 30.03 in 7.0 mi NNW 17.3 mph 25.3 mph N/A   Overcast
11:15 AM 21.2 °F 4.5 °F 15.8 °F 80% 30.03 in 7.0 mi NNW 24.2 mph 31.1 mph N/A   Overcast
11:35 AM 21.2 °F 6.0 °F 15.8 °F 80% 30.02 in 4.0 mi NNW 19.6 mph 24.2 mph N/A   Haze
11:55 AM 21.2 °F 5.2 °F 14.0 °F 74% 30.03 in 10.0 mi NNW 21.9 mph 29.9 mph N/A   Overcast
12:15 PM 21.2 °F 6.8 °F 14.0 °F 74% 30.03 in 10.0 mi NNW 17.3 mph 25.3 mph N/A   Overcast
12:35 PM 21.2 °F 6.0 °F 12.2 °F 68% 30.03 in 10.0 mi NNW 19.6 mph 27.6 mph N/A   Mostly Cloudy
12:55 PM 23.0 °F 8.7 °F 14.0 °F 68% 30.03 in 10.0 mi NW 18.4 mph 25.3 mph N/A   Mostly Cloudy
1:15 PM 23.0 °F 8.3 °F 14.0 °F 68% 30.03 in 7.0 mi NW 19.6 mph - N/A   Mostly Cloudy
1:35 PM 21.2 °F 6.0 °F 14.0 °F 74% 30.04 in 7.0 mi NW 19.6 mph 27.6 mph N/A   Overcast
1:55 PM 21.2 °F 5.2 °F 12.2 °F 68% 30.05 in 7.0 mi NW 21.9 mph 26.5 mph N/A   Overcast
2:15 PM 21.2 °F 7.8 °F 12.2 °F 68% 30.05 in 10.0 mi NW 15.0 mph 26.5 mph N/A   Mostly Cloudy
2:35 PM 21.2 °F 5.6 °F 12.2 °F 68% 30.06 in 10.0 mi NW 20.7 mph 25.3 mph N/A   Scattered Clouds
2:55 PM 19.4 °F 3.6 °F 10.4 °F 68% 30.07 in 10.0 mi NW 19.6 mph 25.3 mph N/A   Scattered Clouds
3:15 PM 19.4 °F 5.0 °F 10.4 °F 68% 30.07 in 10.0 mi NW 16.1 mph 26.5 mph N/A   Scattered Clouds
3:35 PM 19.4 °F 4.1 °F 10.4 °F 68% 30.08 in 10.0 mi NW 18.4 mph 29.9 mph N/A   Clear
3:55 PM 19.4 °F 5.0 °F 10.4 °F 68% 30.08 in 10.0 mi NNW 16.1 mph 25.3 mph N/A   Clear
4:15 PM 19.4 °F 5.5 °F 10.4 °F 68% 30.09 in 10.0 mi NW 15.0 mph 21.9 mph N/A   Clear
4:35 PM 17.6 °F 2.7 °F 10.4 °F 73% 30.10 in 10.0 mi NW 16.1 mph 21.9 mph N/A   Clear
4:55 PM 15.8 °F 2.7 °F 8.6 °F 73% 30.10 in 10.0 mi NW 11.5 mph 21.9 mph N/A   Clear
5:15 PM 15.8 °F 3.4 °F 8.6 °F 73% 30.11 in 10.0 mi NW 10.4 mph - N/A   Clear
5:35 PM 15.8 °F 3.4 °F 8.6 °F 73% 30.11 in 10.0 mi NW 10.4 mph - N/A   Clear
5:55 PM 15.8 °F 4.2 °F 8.6 °F 73% 30.11 in 10.0 mi NW 9.2 mph - N/A   Clear
6:15 PM 15.8 °F 2.7 °F 8.6 °F 73% 30.11 in 10.0 mi NW 11.5 mph - N/A   Clear
6:35 PM 14.0 °F 2.0 °F 8.6 °F 79% 30.12 in 10.0 mi NW 9.2 mph - N/A   Clear
6:55 PM 15.8 °F 4.2 °F 8.6 °F 73% 30.13 in 10.0 mi NW 9.2 mph - N/A   Clear
7:15 PM 14.0 °F 2.0 °F 8.6 °F 79% 30.13 in 10.0 mi NW 9.2 mph - N/A   Clear
7:35 PM 14.0 °F 2.0 °F 8.6 °F 79% 30.13 in 10.0 mi NW 9.2 mph - N/A   Clear
7:55 PM 14.0 °F 2.9 °F 8.6 °F 79% 30.13 in 10.0 mi NW 8.1 mph - N/A   Clear
8:15 PM 14.0 °F 5.1 °F 8.6 °F 79% 30.13 in 10.0 mi WNW 5.8 mph - N/A   Clear
8:35 PM 12.2 °F 6.1 °F 8.6 °F 85% 30.14 in 10.0 mi NW 3.5 mph - N/A   Clear
8:55 PM 14.0 °F 3.9 °F 8.6 °F 79% 30.14 in 10.0 mi NW 6.9 mph - N/A   Clear
9:15 PM 14.0 °F 5.1 °F 8.6 °F 79% 30.14 in 10.0 mi NW 5.8 mph - N/A   Clear
9:35 PM 14.0 °F - 6.8 °F 73% 30.15 in 10.0 mi Calm Calm - N/A   Clear
9:55 PM 14.0 °F - 8.6 °F 79% 30.16 in 10.0 mi Calm Calm - N/A   Clear
10:15 PM 14.0 °F - 6.8 °F 73% 30.16 in 10.0 mi Calm Calm - N/A   Clear
10:35 PM 14.0 °F - 6.8 °F 73% 30.17 in 10.0 mi Calm Calm - N/A   Clear
10:55 PM 14.0 °F 8.2 °F 6.8 °F 73% 30.17 in 10.0 mi ENE 3.5 mph - N/A   Clear
11:15 PM 14.0 °F - 6.8 °F 73% 30.18 in 10.0 mi Calm Calm - N/A   Clear
11:35 PM 14.0 °F - 6.8 °F 73% 30.19 in 10.0 mi Calm Calm - N/A   Clear
11:55 PM 14.0 °F - 6.8 °F 73% 30.19 in 10.0 mi Calm Calm - N/A   Clear